QPF
0.12 0.13 0.12 0.13 0.15 0.19 0.23 0.28 0.31 0.30 0.25 0.23 0.24 0.26 0.26 0.28 0.31 0.29 0.28 0.30 0.28 0.26 0.24 0.20 0.16 0.12 0.09 0.06 0.04 0.02 0.01 0.01 0.00 0.00 0.00 0.01 0.01 0.01
0.08 0.11 0.13 0.14 0.16 0.19 0.22 0.25 0.28 0.32 0.31 0.26 0.25 0.28 0.31 0.31 0.33 0.31 0.30 0.31 0.28 0.25 0.21 0.17 0.12 0.09 0.06 0.04 0.03 0.02 0.01 0.01 0.01 0.01 0.01 0.01 0.01 0.01
0.05 0.06 0.07 0.08 0.09 0.11 0.14 0.17 0.21 0.25 0.28 0.26 0.26 0.28 0.30 0.30 0.30 0.27 0.23 0.20 0.17 0.14 0.12 0.09 0.07 0.05 0.03 0.02 0.01 0.01 0.01 0.01 0.01 0.01 0.01 0.01 0.01 0.01
0.03 0.03 0.04 0.05 0.06 0.07 0.09 0.12 0.15 0.19 0.22 0.22 0.21 0.21 0.20 0.19 0.17 0.14 0.11 0.09 0.07 0.06 0.05 0.04 0.03 0.02 0.01 0.01 0.01 0.00 0.00 0.00 0.00 0.00 0.00 0.01 0.01 0.01
0.02 0.03 0.03 0.04 0.04 0.06 0.08 0.10 0.11 0.13 0.15 0.15 0.15 0.14 0.11 0.09 0.08 0.06 0.04 0.03 0.02 0.02 0.02 0.01 0.01 0.01 0.00 0.00 0.00 0.00 0.00 0.00 0.00 0.00 0.00 0.00 0.01 0.01
0.02 0.03 0.04 0.04 0.05 0.06 0.08 0.09 0.10 0.10 0.10 0.09 0.09 0.08 0.07 0.05 0.04 0.03 0.02 0.01 0.01 0.00 0.00 0.00 0.00 0.00 0.00 0.00 0.00 0.00 0.00 0.00 0.00 0.00 0.00 0.00 0.00 0.00
0.01 0.02 0.03 0.04 0.05 0.05 0.06 0.07 0.07 0.07 0.06 0.06 0.05 0.05 0.04 0.03 0.02 0.01 0.01 0.00 0.00 0.00 0.00 0.00 0.00 0.00 0.00 0.00 0.00 0.00 0.00 0.00 0.00 0.00 0.00 0.00 0.00 0.01
0.03 0.03 0.03 0.03 0.03 0.04 0.05 0.05 0.04 0.04 0.03 0.03 0.03 0.03 0.02 0.01 0.00 0.00 0.00 0.00 0.00 0.00 0.00 0.00 0.00 0.00 0.00 0.00 0.00 0.00 0.00 0.00 0.00 0.00 0.00 0.00 0.00 0.00
0.01 0.02 0.02 0.02 0.02 0.02 0.03 0.04 0.04 0.03 0.02 0.01 0.01 0.01 0.00 0.00 0.00 0.00 0.00 0.00 0.00 0.00 0.00 0.00 0.00 0.00 0.00 0.00 0.00 0.00 0.00 0.00 0.00 0.00 0.00 0.00 0.00 0.00
0.01 0.02 0.02 0.01 0.01 0.02 0.02 0.02 0.02 0.01 0.01 0.00 0.00 0.00 0.00 0.00 0.00 0.00 0.00 0.00 0.00 0.00 0.00 0.00 0.00 0.00 0.00 0.00 0.00 0.00 0.00 0.00 0.00 0.00 0.00 0.00 0.00 0.00
0.00 0.01 0.01 0.01 0.01 0.01 0.00 0.00 0.00 0.00 0.00 0.00 0.00 0.00 0.00 0.00 0.00 0.00 0.00 0.00 0.00 0.00 0.00 0.00 0.00 0.00 0.00 0.00 0.00 0.00 0.00 0.00 0.00 0.00 0.00 0.00 0.00 0.00
0.00 0.00 0.00 0.00 0.00 0.00 0.00 0.00 0.00 0.00 0.00 0.00 0.00 0.00 0.00 0.00 0.00 0.00 0.00 0.00 0.00 0.00 0.00 0.00 0.00 0.00 0.00 0.00 0.00 0.00 0.00 0.00 0.00 0.00 0.00 0.00 0.00 0.00
0.00 0.00 0.00 0.00 0.00 0.00 0.00 0.00 0.00 0.00 0.00 0.00 0.00 0.00 0.00 0.00 0.00 0.00 0.00 0.00 0.00 0.00 0.00 0.00 0.00 0.00 0.00 0.00 0.00 0.00 0.00 0.00 0.00 0.00 0.00 0.00 0.00 0.00
0.00 0.00 0.00 0.00 0.00 0.00 0.00 0.00 0.00 0.00 0.00 0.00 0.00 0.00 0.00 0.00 0.00 0.00 0.00 0.00 0.00 0.00 0.00 0.00 0.01 0.01 0.01 0.01 0.00 0.00 0.00 0.00 0.00 0.00 0.00 0.00 0.00 0.00
0.00 0.00 0.00 0.00 0.00 0.00 0.00 0.00 0.00 0.00 0.00 0.00 0.00 0.00 0.00 0.00 0.00 0.00 0.00 0.00 0.00 0.00 0.00 0.00 0.00 0.01 0.02 0.02 0.01 0.00 0.00 0.00 0.00 0.00 0.00 0.00 0.00 0.00
0.00 0.00 0.00 0.00 0.00 0.00 0.00 0.00 0.00 0.00 0.00 0.00 0.00 0.00 0.00 0.00 0.00 0.00 0.00 0.00 0.00 0.00 0.00 0.00 0.00 0.00 0.01 0.01 0.01 0.01 0.00 0.00 0.00 0.00 0.00 0.00 0.00 0.00
0.00 0.00 0.00 0.00 0.00 0.00 0.00 0.00 0.00 0.00 0.00 0.00 0.00 0.00 0.00 0.00 0.00 0.00 0.00 0.00 0.00 0.00 0.00 0.00 0.00 0.00 0.00 0.01 0.01 0.00 0.00 0.00 0.00 0.00 0.00 0.00 0.00 0.00
0.00 0.00 0.00 0.00 0.00 0.00 0.00 0.00 0.00 0.00 0.00 0.00 0.00 0.00 0.00 0.00 0.00 0.00 0.00 0.01 0.01 0.00 0.00 0.00 0.00 0.01 0.00 0.00 0.00 0.00 0.00 0.00 0.00 0.00 0.00 0.01 0.00 0.00
0.00 0.00 0.00 0.00 0.00 0.00 0.00 0.00 0.00 0.00 0.00 0.00 0.00 0.00 0.00 0.00 0.00 0.00 0.00 0.01 0.01 0.00 0.00 0.00 0.01 0.02 0.02 0.01 0.00 0.00 0.00 0.00 0.00 0.00 0.00 0.00 0.00 0.00
0.00 0.00 0.00 0.00 0.00 0.00 0.00 0.00 0.00 0.00 0.00 0.00 0.00 0.00 0.00 0.00 0.01 0.00 0.00 0.01 0.01 0.01 0.00 0.00 0.00 0.01 0.03 0.02 0.01 0.00 0.00 0.00 0.00 0.00 0.00 0.00 0.00 0.00
0.00 0.00 0.00 0.00 0.00 0.00 0.00 0.00 0.00 0.00 0.00 0.00 0.00 0.00 0.00 0.01 0.01 0.01 0.01 0.01 0.01 0.01 0.01 0.00 0.00 0.01 0.02 0.04 0.03 0.00 0.00 0.00 0.00 0.00 0.01 0.02 0.02 0.01
0.00 0.00 0.00 0.00 0.00 0.00 0.00 0.00 0.00 0.00 0.00 0.00 0.00 0.00 0.00 0.01 0.01 0.01 0.01 0.01 0.01 0.01 0.01 0.00 0.00 0.00 0.02 0.03 0.02 0.00 0.00 0.00 0.00 0.00 0.00 0.01 0.04 0.03
0.00 0.00 0.00 0.00 0.00 0.00 0.00 0.00 0.00 0.00 0.00 0.00 0.00 0.00 0.01 0.01 0.01 0.01 0.01 0.01 0.01 0.01 0.01 0.01 0.00 0.00 0.01 0.01 0.02 0.01 0.00 0.00 0.00 0.00 0.00 0.00 0.00 0.00
MSLP
1016.57 1016.80 1016.98 1017.13 1017.25 1017.34 1017.43 1017.52 1017.64 1017.79 1017.97 1018.20 1018.46 1018.75 1019.05 1019.36 1019.69 1020.04 1020.40 1020.78 1021.17 1021.57 1021.94 1022.29 1022.57 1022.77 1022.87 1022.88 1022.79 1022.63 1022.42 1022.19 1021.97 1021.76 1021.57 1021.41 1021.28 1021.15
1016.96 1017.15 1017.30 1017.41 1017.48 1017.53 1017.58 1017.64 1017.73 1017.87 1018.05 1018.27 1018.52 1018.79 1019.08 1019.38 1019.69 1020.01 1020.36 1020.72 1021.10 1021.48 1021.85 1022.19 1022.46 1022.64 1022.73 1022.72 1022.62 1022.44 1022.21 1021.96 1021.71 1021.49 1021.29 1021.12 1020.97 1020.83
1017.50 1017.65 1017.75 1017.81 1017.83 1017.84 1017.84 1017.87 1017.94 1018.06 1018.22 1018.43 1018.67 1018.93 1019.20 1019.48 1019.77 1020.07 1020.39 1020.73 1021.08 1021.43 1021.77 1022.07 1022.30 1022.45 1022.51 1022.46 1022.33 1022.13 1021.88 1021.62 1021.37 1021.14 1020.94 1020.78 1020.63 1020.50
1018.11 1018.22 1018.28 1018.29 1018.26 1018.22 1018.19 1018.19 1018.23 1018.33 1018.48 1018.67 1018.89 1019.13 1019.39 1019.65 1019.92 1020.19 1020.48 1020.79 1021.10 1021.41 1021.69 1021.94 1022.12 1022.21 1022.21 1022.12 1021.95 1021.72 1021.46 1021.19 1020.95 1020.73 1020.55 1020.41 1020.28 1020.16
1018.74 1018.81 1018.82 1018.79 1018.72 1018.65 1018.59 1018.56 1018.58 1018.66 1018.79 1018.96 1019.17 1019.39 1019.63 1019.87 1020.12 1020.37 1020.62 1020.89 1021.15 1021.40 1021.63 1021.80 1021.91 1021.93 1021.87 1021.72 1021.50 1021.24 1020.97 1020.71 1020.48 1020.29 1020.13 1020.02 1019.92 1019.81
1019.36 1019.39 1019.36 1019.29 1019.20 1019.10 1019.02 1018.97 1018.97 1019.03 1019.14 1019.29 1019.48 1019.69 1019.90 1020.12 1020.34 1020.57 1020.79 1021.01 1021.22 1021.42 1021.57 1021.67 1021.70 1021.64 1021.50 1021.30 1021.03 1020.75 1020.46 1020.20 1019.99 1019.82 1019.70 1019.61 1019.53 1019.45
1019.96 1019.94 1019.89 1019.79 1019.67 1019.56 1019.46 1019.39 1019.38 1019.42 1019.51 1019.64 1019.81 1019.99 1020.18 1020.38 1020.58 1020.78 1020.97 1021.15 1021.32 1021.45 1021.53 1021.56 1021.50 1021.37 1021.16 1020.89 1020.58 1020.26 1019.96 1019.70 1019.50 1019.35 1019.25 1019.19 1019.13 1019.06
1020.52 1020.47 1020.39 1020.27 1020.14 1020.01 1019.89 1019.82 1019.79 1019.81 1019.88 1019.98 1020.12 1020.28 1020.45 1020.63 1020.80 1020.97 1021.14 1021.29 1021.41 1021.49 1021.52 1021.47 1021.35 1021.14 1020.87 1020.53 1020.18 1019.82 1019.50 1019.23 1019.03 1018.89 1018.80 1018.74 1018.68 1018.61
1021.04 1020.96 1020.85 1020.72 1020.57 1020.43 1020.31 1020.23 1020.18 1020.18 1020.22 1020.30 1020.41 1020.54 1020.68 1020.83 1020.99 1021.14 1021.29 1021.41 1021.50 1021.54 1021.51 1021.41 1021.23 1020.96 1020.62 1020.24 1019.84 1019.45 1019.10 1018.81 1018.59 1018.44 1018.34 1018.27 1018.20 1018.11
1021.51 1021.40 1021.27 1021.12 1020.97 1020.82 1020.69 1020.59 1020.53 1020.51 1020.52 1020.57 1020.65 1020.75 1020.86 1020.99 1021.13 1021.26 1021.38 1021.49 1021.55 1021.56 1021.50 1021.35 1021.12 1020.81 1020.42 1019.99 1019.55 1019.13 1018.74 1018.42 1018.18 1018.00 1017.87 1017.78 1017.68 1017.56
1021.90 1021.77 1021.62 1021.46 1021.30 1021.15 1021.01 1020.91 1020.83 1020.79 1020.77 1020.79 1020.84 1020.90 1020.99 1021.09 1021.20 1021.31 1021.42 1021.50 1021.54 1021.53 1021.44 1021.26 1021.00 1020.65 1020.23 1019.77 1019.29 1018.83 1018.42 1018.07 1017.79 1017.57 1017.41 1017.27 1017.13 1016.97
1022.19 1022.04 1021.89 1021.73 1021.56 1021.41 1021.28 1021.16 1021.08 1021.01 1020.97 1020.96 1020.97 1021.01 1021.06 1021.13 1021.21 1021.29 1021.37 1021.43 1021.45 1021.41 1021.30 1021.10 1020.81 1020.44 1020.00 1019.52 1019.02 1018.54 1018.10 1017.72 1017.40 1017.15 1016.94 1016.76 1016.57 1016.37
1022.37 1022.22 1022.07 1021.91 1021.76 1021.61 1021.48 1021.37 1021.27 1021.20 1021.14 1021.10 1021.07 1021.07 1021.08 1021.11 1021.15 1021.20 1021.25 1021.28 1021.26 1021.20 1021.06 1020.84 1020.53 1020.15 1019.69 1019.20 1018.69 1018.20 1017.74 1017.33 1016.99 1016.70 1016.45 1016.23 1016.00 1015.76
1022.45 1022.31 1022.17 1022.03 1021.89 1021.77 1021.65 1021.54 1021.45 1021.36 1021.28 1021.21 1021.15 1021.11 1021.07 1021.05 1021.05 1021.05 1021.04 1021.02 1020.97 1020.87 1020.70 1020.45 1020.13 1019.73 1019.28 1018.78 1018.27 1017.77 1017.30 1016.88 1016.52 1016.20 1015.92 1015.65 1015.40 1015.12
1022.45 1022.33 1022.22 1022.10 1022.00 1021.90 1021.80 1021.70 1021.61 1021.52 1021.42 1021.33 1021.23 1021.13 1021.05 1020.97 1020.90 1020.83 1020.77 1020.68 1020.57 1020.42 1020.21 1019.94 1019.60 1019.19 1018.73 1018.24 1017.73 1017.23 1016.77 1016.34 1015.96 1015.62 1015.31 1015.01 1014.72 1014.41
1022.41 1022.32 1022.24 1022.17 1022.09 1022.02 1021.95 1021.87 1021.78 1021.68 1021.57 1021.44 1021.30 1021.16 1021.01 1020.86 1020.72 1020.58 1020.43 1020.28 1020.10 1019.88 1019.62 1019.31 1018.94 1018.52 1018.06 1017.56 1017.06 1016.57 1016.10 1015.67 1015.28 1014.92 1014.58 1014.25 1013.93 1013.59
1022.35 1022.31 1022.27 1022.23 1022.19 1022.14 1022.09 1022.02 1021.93 1021.83 1021.69 1021.53 1021.36 1021.16 1020.95 1020.73 1020.51 1020.28 1020.05 1019.81 1019.56 1019.28 1018.96 1018.60 1018.20 1017.76 1017.28 1016.79 1016.29 1015.79 1015.32 1014.87 1014.46 1014.07 1013.71 1013.35 1012.99 1012.62
1022.29 1022.29 1022.29 1022.28 1022.27 1022.25 1022.21 1022.14 1022.05 1021.93 1021.77 1021.58 1021.36 1021.10 1020.83 1020.54 1020.25 1019.94 1019.63 1019.31 1018.98 1018.63 1018.25 1017.85 1017.41 1016.94 1016.44 1015.93 1015.41 1014.91 1014.42 1013.95 1013.50 1013.08 1012.67 1012.27 1011.86 1011.45
1022.23 1022.26 1022.29 1022.30 1022.31 1022.29 1022.25 1022.18 1022.07 1021.93 1021.74 1021.52 1021.25 1020.95 1020.63 1020.28 1019.92 1019.54 1019.16 1018.77 1018.37 1017.96 1017.53 1017.07 1016.59 1016.09 1015.57 1015.03 1014.49 1013.95 1013.42 1012.91 1012.42 1011.95 1011.48 1011.03 1010.57 1010.12
1022.15 1022.19 1022.23 1022.25 1022.25 1022.22 1022.17 1022.08 1021.95 1021.78 1021.56 1021.30 1021.01 1020.67 1020.30 1019.90 1019.49 1019.06 1018.63 1018.18 1017.73 1017.27 1016.79 1016.29 1015.77 1015.23 1014.67 1014.10 1013.52 1012.94 1012.36 1011.80 1011.25 1010.71 1010.18 1009.67 1009.16 1008.66
1022.00 1022.04 1022.06 1022.07 1022.05 1022.00 1021.91 1021.79 1021.63 1021.43 1021.19 1020.90 1020.57 1020.20 1019.80 1019.38 1018.93 1018.48 1018.01 1017.53 1017.04 1016.54 1016.02 1015.49 1014.93 1014.36 1013.76 1013.14 1012.52 1011.88 1011.25 1010.62 1010.00 1009.40 1008.80 1008.23 1007.67 1007.14
1021.75 1021.77 1021.77 1021.74 1021.68 1021.59 1021.47 1021.31 1021.11 1020.88 1020.60 1020.28 1019.93 1019.55 1019.13 1018.69 1018.23 1017.76 1017.27 1016.77 1016.26 1015.73 1015.19 1014.63 1014.04 1013.43 1012.80 1012.14 1011.46 1010.77 1010.08 1009.39 1008.70 1008.03 1007.38 1006.76 1006.17 1005.60
1021.39 1021.38 1021.33 1021.26 1021.16 1021.02 1020.85 1020.64 1020.40 1020.12 1019.82 1019.48 1019.11 1018.71 1018.28 1017.83 1017.37 1016.89 1016.39 1015.88 1015.36 1014.81 1014.25 1013.66 1013.05 1012.40 1011.73 1011.03 1010.31 1009.57 1008.82 1008.08 1007.35 1006.63 1005.94 1005.29 1004.67 1004.10
Thickness
5569 5561 5553 5545 5535 5527 5519 5513 5506 5503 5503 5500 5497 5498 5500 5501 5500 5499 5496 5493 5489 5486 5485 5483 5482 5481 5481 5481 5482 5484 5485 5487 5489 5491 5493 5494 5496 5497
5554 5546 5537 5528 5519 5511 5503 5498 5495 5493 5493 5488 5485 5484 5484 5485 5485 5484 5482 5479 5477 5475 5474 5472 5470 5469 5470 5471 5471 5472 5474 5475 5477 5478 5480 5481 5483 5484
5537 5529 5519 5510 5502 5494 5488 5483 5480 5478 5477 5472 5470 5469 5469 5471 5472 5471 5469 5468 5465 5463 5462 5461 5460 5459 5459 5460 5460 5460 5461 5462 5463 5464 5465 5466 5467 5468
5521 5513 5504 5496 5487 5480 5475 5471 5467 5466 5464 5462 5459 5457 5457 5458 5459 5458 5457 5455 5453 5452 5452 5451 5450 5449 5448 5448 5448 5447 5447 5448 5449 5449 5450 5450 5450 5450
5507 5500 5491 5484 5476 5469 5464 5460 5458 5456 5455 5454 5451 5449 5448 5449 5448 5448 5446 5444 5442 5441 5441 5440 5438 5437 5436 5435 5434 5434 5434 5434 5434 5434 5433 5433 5432 5433
5495 5488 5481 5474 5467 5461 5456 5452 5450 5448 5447 5446 5443 5442 5440 5440 5439 5438 5435 5433 5432 5431 5429 5427 5425 5423 5422 5421 5421 5420 5419 5418 5418 5417 5417 5416 5415 5414
5483 5477 5472 5466 5461 5456 5450 5446 5443 5441 5439 5437 5436 5435 5433 5432 5430 5428 5425 5422 5419 5418 5416 5414 5412 5411 5408 5407 5406 5405 5404 5403 5402 5400 5399 5398 5397 5395
5473 5468 5463 5459 5455 5452 5447 5442 5438 5435 5432 5430 5428 5427 5424 5422 5419 5417 5413 5408 5405 5405 5402 5401 5400 5398 5397 5395 5392 5391 5389 5387 5385 5383 5381 5380 5378 5377
5463 5459 5455 5451 5447 5443 5440 5436 5433 5431 5428 5424 5421 5418 5415 5413 5409 5406 5402 5397 5394 5394 5390 5389 5389 5385 5384 5381 5379 5377 5374 5372 5369 5367 5365 5363 5361 5360
5454 5450 5446 5443 5441 5437 5433 5429 5426 5423 5421 5418 5414 5411 5408 5405 5402 5398 5393 5389 5386 5383 5379 5374 5374 5372 5371 5368 5365 5362 5359 5357 5355 5352 5350 5348 5347 5346
5446 5443 5440 5436 5436 5432 5426 5422 5419 5416 5414 5411 5408 5404 5402 5398 5395 5389 5382 5376 5371 5371 5368 5361 5358 5355 5354 5352 5350 5347 5345 5343 5340 5338 5337 5336 5335 5335
5438 5435 5433 5431 5428 5424 5418 5414 5410 5407 5404 5402 5398 5395 5391 5387 5384 5379 5371 5362 5354 5351 5352 5346 5341 5336 5335 5336 5333 5331 5329 5328 5327 5326 5325 5324 5324 5324
5431 5427 5425 5423 5420 5417 5412 5407 5403 5401 5395 5391 5387 5383 5380 5375 5371 5366 5360 5351 5342 5336 5337 5331 5324 5320 5318 5321 5322 5319 5317 5316 5315 5314 5314 5314 5314 5314
5424 5420 5417 5415 5412 5409 5404 5400 5397 5392 5385 5381 5376 5372 5367 5362 5357 5352 5346 5340 5334 5328 5324 5319 5314 5310 5308 5309 5312 5312 5308 5306 5306 5307 5307 5306 5305 5305
5416 5414 5411 5408 5405 5399 5395 5392 5387 5380 5375 5370 5365 5359 5354 5349 5344 5339 5333 5328 5322 5317 5313 5309 5304 5302 5299 5300 5303 5302 5301 5302 5300 5301 5300 5298 5297 5296
5409 5406 5403 5399 5395 5391 5386 5381 5375 5370 5365 5359 5354 5349 5343 5337 5331 5325 5319 5313 5308 5305 5302 5299 5295 5291 5291 5291 5291 5294 5292 5292 5296 5293 5293 5293 5292 5291
5403 5397 5393 5389 5384 5380 5375 5370 5365 5360 5354 5348 5342 5336 5331 5325 5319 5313 5306 5301 5296 5293 5290 5286 5284 5282 5281 5281 5284 5287 5287 5288 5289 5288 5287 5289 5291 5288
5396 5389 5384 5379 5374 5369 5364 5359 5354 5349 5343 5337 5330 5323 5318 5312 5306 5300 5294 5289 5285 5283 5280 5276 5272 5272 5274 5278 5279 5280 5281 5281 5282 5281 5280 5283 5289 5288
5386 5381 5375 5370 5365 5360 5354 5348 5343 5338 5332 5325 5318 5312 5305 5299 5293 5288 5283 5278 5275 5273 5270 5265 5261 5259 5262 5270 5277 5275 5273 5275 5275 5276 5276 5278 5284 5287
5378 5373 5367 5362 5357 5351 5345 5339 5334 5328 5322 5315 5308 5301 5294 5287 5282 5277 5272 5268 5265 5263 5262 5258 5254 5252 5253 5259 5267 5272 5266 5266 5269 5272 5275 5277 5281 5285
5372 5367 5361 5355 5350 5344 5337 5331 5325 5318 5312 5305 5298 5291 5285 5278 5273 5269 5264 5261 5259 5257 5256 5255 5252 5249 5248 5250 5258 5271 5270 5264 5264 5266 5270 5273 5280 5284
5366 5360 5355 5349 5343 5336 5330 5323 5317 5311 5304 5297 5291 5284 5277 5270 5265 5261 5257 5254 5252 5250 5251 5251 5249 5245 5243 5245 5253 5263 5269 5268 5266 5266 5268 5270 5272 5283
5359 5354 5348 5342 5336 5329 5323 5316 5309 5303 5297 5290 5283 5277 5270 5264 5259 5255 5252 5249 5247 5246 5246 5247 5247 5244 5244 5245 5250 5257 5263 5267 5268 5271 5275 5272 5274 5280